#timestamp,LO_Frequency,Hit,StdDev 
1619280015.1,286047002.6,N
1619280035.9,286047002.5,N
1619280055.7,286047004.1,N
1619280075.6,286047006.0,Y
1619280095.4,286047002.5,P
1619280115.2,286047004.0,P
1619280135.1,286047003.8,P
1619280136.0,286047003.8,Y
1619280155.8,286047000.8,P
1619280175.7,286046998.5,N
1619280195.5,286047001.1,N
1619280215.3,286046999.0,N
1619280235.2,286046998.1,N
1619280255.0,286046998.7,N
1619280255.9,286046998.7,N
1619280275.8,286046997.2,N
1619280295.6,286046999.2,N
1619280315.4,286046999.3,N
1619280335.3,286046999.2,N
1619280355.1,286046994.9,Y
1619280375.9,286046999.4,P
1619280395.7,286046998.2,P
1619280415.5,286046999.2,N
1619280435.4,286047001.0,N
1619280455.2,286047002.7,N
1619280475.0,286047004.4,N
1619280475.9,286047004.4,N
1619280495.8,286047000.0,N
1619280515.6,286046999.3,N
1619280535.5,286046999.3,N
1619280555.3,286046998.2,N
1619280575.1,286047002.6,N
1619280595.9,286046999.8,N
1619280615.7,286047001.1,N
1619280635.5,286047002.0,N
1619280655.4,286047003.8,N
1619280675.2,286047003.8,N
1619280695.1,286047001.6,N
1619280696.0,286047001.6,N
1619280715.8,286047002.3,N
1619280735.6,286046999.8,N
1619280755.5,286046998.8,N
1619280775.3,286046998.8,N
1619280795.1,286046999.1,N
1619280815.9,286046999.4,N
1619280835.7,286046998.3,N
1619280855.6,286046999.5,N
1619280875.4,286047000.7,N
1619280895.2,286047000.6,N
1619280945.1,286046998.1,E
1619280955.0,286047000.0,N
1619280955.9,286047000.0,P
1619280975.8,286047001.4,P
1619280995.6,286047001.3,N
1619281015.4,286047001.6,N
1619281035.3,286047003.6,Y
1619281055.1,286047001.6,P
1619281075.8,286047004.3,P
1619281095.7,286047003.6,N
1619281115.5,286047002.9,N
1619281135.4,286047003.5,N
1619281155.2,286047004.1,Y
1619281175.0,286047000.1,P
1619281175.9,286047000.1,N
1619281195.8,286046998.6,N
1619281215.6,286046998.6,N
1619281235.5,286046995.3,Y
1619281255.3,286046998.9,P
1619281275.1,286046999.1,N
1619281295.9,286047000.9,N
1619281315.7,286047000.6,N
1619281335.5,286046999.1,N
1619281355.4,286047000.6,N
1619281375.2,286047000.1,N
1619281395.1,286047000.0,N
1619281396.0,286047000.0,N
1619281415.8,286047000.3,N
1619281435.6,286046998.9,N
1619281455.5,286047000.2,N
1619281475.3,286047000.3,N
1619281495.1,286047002.0,Y
1619281515.9,286047002.7,P
1619281535.7,286047002.2,N
1619281555.6,286047000.2,N
1619281575.4,286047002.6,N
1619281595.2,286047002.1,N
1619281615.1,286047002.1,N
1619281616.0,286047002.1,N
1619281635.8,286047000.1,N
1619281655.6,286047002.4,N
1619281675.5,286046999.8,N
1619281695.3,286046996.6,Y
1619281715.2,286046996.9,P
1619281735.0,286046998.7,N
1619281735.9,286046998.7,N
1619281755.7,286046998.5,N
1619281775.6,286046998.7,N
1619281795.4,286047001.1,N
1619281815.3,286046999.5,N
1619281835.1,286046997.0,N
1619281836.0,286046997.0,N
1619281855.8,286046998.4,N
1619281875.7,286047000.1,N
1619281895.5,286047001.6,N
1619281915.3,286047001.8,N
1619281935.2,286047002.6,N
1619281955.0,286046998.8,N
1619281955.9,286046998.8,N
1619281975.8,286046998.6,N
1619281995.6,286047000.9,N
1619282015.4,286047000.5,N
1619282035.3,286047000.4,N
1619282055.1,286046999.7,N
1619282075.8,286046999.4,N
1619282095.7,286047000.5,N
1619282115.5,286047000.0,N
1619282135.4,286047002.4,N
1619282155.2,286047000.4,N
1619282175.0,286047000.1,N
1619282175.9,286047000.1,N
1619282195.8,286046999.0,N
1619282215.6,286046998.1,N
1619282235.4,286046998.1,N
1619282255.3,286046999.3,N
1619282275.1,286047001.0,N
1619282295.9,286046997.7,N
1619282315.7,286046996.4,N
1619282335.5,286046994.6,Y
1619282355.4,286046996.4,P
1619282375.2,286046997.8,N
1619282395.0,286046995.2,P
1619282395.9,286046995.2,N
1619282415.8,286046997.1,N
1619282435.6,286046997.9,N
1619282455.5,286047001.0,N
1619282475.3,286046999.9,N
1619282495.1,286046999.9,N
1619282515.9,286047000.0,N
1619282535.7,286046998.1,N
1619282555.6,286046996.5,N
1619282575.4,286046996.0,N
1619282595.2,286046993.4,Y
1619282615.1,286047005.0,P
1619282616.0,286047005.0,N
1619282635.8,286047013.7,P
1619282655.7,286047014.8,N
1619282675.5,286047014.0,N
1619282695.3,286047010.1,N
1619282715.2,286047009.1,N
1619282735.0,286047004.1,N
1619282735.9,286047004.1,N
1619282755.7,286047003.9,N
1619282775.6,286047004.3,N
1619282795.4,286047002.0,N
1619282815.3,286047001.8,N
1619282835.1,286047001.6,N
1619282855.8,286047000.0,N
1619282875.7,286047001.7,N
1619282895.5,286047003.5,N
1619282915.4,286047002.9,N
1619282935.2,286047001.8,N
1619282955.0,286047000.1,N
1619282955.9,286047000.1,N
1619282975.8,286047002.7,N
1619282995.6,286047002.3,N
1619283015.4,286047002.1,N
1619283035.3,286047001.4,N
1619283055.1,286047001.9,N
1619283075.9,286047002.0,N
1619283095.7,286047002.7,N
1619283115.5,286047003.9,N
1619283135.4,286047003.8,N
1619283155.2,286047001.4,N
1619283175.0,286047002.1,N
1619283175.9,286047002.1,N
1619283195.8,286047004.4,N
1619283215.6,286047002.5,N
1619283235.5,286047000.0,N
1619283255.3,286047001.2,N
1619283275.1,286047002.6,N
1619283295.9,286046999.8,N
1619283315.7,286047001.8,N
1619283335.6,286047004.2,Y
1619283355.4,286046996.6,P
1619283375.2,286046997.0,N
1619283395.1,286046999.6,N
1619283396.0,286046999.6,N
1619283415.8,286046999.0,N
1619283435.6,286046995.8,N
1619283455.5,286046996.3,N
1619283475.3,286046997.9,N
1619283495.2,286046997.6,N
1619283515.9,286046996.1,N
1619283535.7,286046998.0,N
1619283555.6,286046995.0,N
1619283575.4,286046997.2,N
1619283595.2,286046996.6,N
